Regional Weather Roundup
Issued by NWS

Home | Current Version | Previous Version | Text Only | Print | Product List | Glossary Off
Versions: 1 2 3 4 5 6 7 8 9 10 11 12 13 14 15 16 17 18 19 20 21 22 23 24 25 26 27 28 29 30 31 32 33 34 35 36 37 38 39 40 41 42 43 44 45 46 47 48 49 50

000
ASUS43 KLMK 240302
RWRKY
KENTUCKY REGIONAL WEATHER ROUNDUP
NATIONAL WEATHER SERVICE LOUISVILLE KY
1100 PM EDT WED JUL 23 2014

NOTE "FAIR" INDICATES FEW OR NO CLOUDS BELOW 12,000 FEET
WITH NO SIGNIFICANT WEATHER AND/OR OBSTRUCTIONS TO VISIBILITY.

KYZ001>023-026-027-061>063-070>075-240400-
WESTERN AND SOUTH CENTRAL KENTUCKY

CITY           SKY/WX    TMP DP  RH WIND       PRES   REMARKS
PADUCAH        PTCLDY    76  69  79 N8        30.04R
HENDERSON      CLOUDY    73  66  78 N3        30.03R
OWENSBORO      MOCLDY    73  69  87 N8        30.03R
HOPKINSVILLE   CLEAR     74  70  85 NW6       30.03R
BOWLING GREEN  CLEAR     78  68  71 NW3       30.00S
GLASGOW        PTCLDY    72  72  99 CALM      30.00F
$$

KYZ024-025-028>034-038-045-046-053-240400-
NORTH CENTRAL KENTUCKY

CITY           SKY/WX    TMP DP  RH WIND       PRES   REMARKS
LOUISVILLE/SDF MOCLDY    76  70  82 N13       29.99S
LOUISVILLE/LOU MOCLDY    76  69  79 N8        30.00S
FORT KNOX      PTCLDY    74  71  89 NW6       29.99S
$$

KYZ035>037-039>044-047>052-055>060-089>105-240400-
NORTHEAST KENTUCKY

CITY           SKY/WX    TMP DP  RH WIND       PRES   REMARKS
LEXINGTON      MOCLDY    74  66  76 SW3       30.00S
COVINGTON      CLOUDY    71  67  87 N10       30.01R
FRANKFORT      CLEAR     75  68  78 N3        29.98F
$$

KYZ054-064>069-076>088-106>120-240400-
SOUTHEAST KENTUCKY

CITY           SKY/WX    TMP DP  RH WIND       PRES   REMARKS
JACKSON        LGT RAIN  68  66  93 CALM      30.02F FOG
LONDON         LGT RAIN  71  68  90 CALM      30.03R
SOMERSET       LGT RAIN  70  70 100 CALM      30.02F
MIDDLESBORO    CLOUDY    72  69  90 CALM      30.02S
MONTICELLO     LGT RAIN  73  72  97 S7        30.04S FOG
$$



USA.gov is the U.S. government's official web portal to all federal, state and local government web resources and services.